Weather History for Quincy, IL

Change the Weather History Date:

Sunday, March 30, 2014

  Actual Average Record
Temperature  
Mean Temperature 48 °F 47 °F  
Max Temperature 65 °F 58 °F 82 °F (1943)
Min Temperature 30 °F 37 °F 16 °F (1964)
Degree Days  
Heating Degree Days 17 18  
Month to date heating degree days 871 702  
Since 1 July heating degree days 5765 5044  
Cooling Degree Days 0 0  
Month to date cooling degree days 0 0  
Year to date cooling degree days 0 0  
Moisture  
Dew Point 32 °F    
Average Humidity 58    
Maximum Humidity 85    
Minimum Humidity 30    
Precipitation  
Precipitation 0.00 in 0.09 in 1.75 in (1980)
Month to date precipitation 0.68 2.36  
Year to date precipitation 2.80 5.76  
Sea Level Pressure  
Sea Level Pressure 30.12 in    
Wind  
Wind Speed 11 mph (SSE)    
Max Wind Speed 18 mph    
Max Gust Speed 24 mph    
Visibility 8 miles    
Events      
T = Trace of Precipitation, MM = Missing Value Source: NWS Daily Summary

Daily Weather History Graph

Daily Weather History Graph

Search for Another Location

Airport:

Trip Planner

Search our weather history database for the weather conditions in past years. The results will help you decide how hot, cold, wet, or windy it might be!

Date:

Astronomy

Mar. 30, 2014 Rise Set
Actual Time 6:51 AM CDT 7:27 PM CDT
Civil Twilight 6:24 AM CDT 7:54 PM CDT
Nautical Twilight 5:52 AM CDT 8:26 PM CDT
Astronomical Twilight 5:19 AM CDT 8:59 PM CDT
Moon 6:37 AM CDT (3/30) 7:40 PM CDT (3/30)
Length of Visible Light 13h 29m
Length of Day
12h 35m
Waning Crescent, 0% of the Moon is Illuminated
Mar 30
Waning Crescent
Mar 30
New
Apr 7
First Quarter
Apr 15
Full
Apr 22
Last Quarter

Hourly Weather History & Observations

Time (CDT) Temp. Windchill Dew Point Humidity Pressure Visibility Wind Dir Wind Speed Gust Speed Precip Events Conditions
12:54 AM 37.0 °F 34.5 °F 28.9 °F 73% 30.26 in 8.0 mi SW 3.5 mph - N/A   Clear
1:54 AM 34.0 °F 28.8 °F 28.0 °F 79% 30.25 in 6.0 mi South 5.8 mph - N/A   Haze
2:54 AM 34.0 °F 29.8 °F 28.9 °F 82% 30.23 in 6.0 mi South 4.6 mph - N/A   Haze
3:54 AM 34.0 °F 28.8 °F 28.0 °F 79% 30.22 in 6.0 mi South 5.8 mph - N/A   Haze
4:54 AM 34.0 °F 28.8 °F 28.9 °F 82% 30.21 in 6.0 mi South 5.8 mph - N/A   Haze
5:54 AM 30.0 °F 25.2 °F 26.1 °F 85% 30.21 in 5.0 mi SSE 4.6 mph - N/A   Clear
6:54 AM 32.0 °F 24.8 °F 28.0 °F 85% 30.20 in 4.0 mi SSE 8.1 mph - N/A   Clear
7:54 AM 36.0 °F 29.0 °F 30.0 °F 79% 30.23 in 5.0 mi South 9.2 mph - N/A   Haze
8:54 AM 39.9 °F 32.9 °F 32.0 °F 73% 30.23 in 6.0 mi SSE 11.5 mph - N/A   Haze
9:54 AM 45.0 °F 38.2 °F 33.1 °F 63% 30.23 in 7.0 mi South 15.0 mph - N/A   Clear
10:54 AM 48.9 °F - 34.0 °F 56% 30.20 in 9.0 mi South 13.8 mph 21.9 mph N/A   Clear
11:54 AM 53.1 °F - 34.0 °F 48% 30.18 in 10.0 mi SSW 15.0 mph 23.0 mph N/A   Clear
12:54 PM 55.9 °F - 35.1 °F 45% 30.15 in 10.0 mi SSE 13.8 mph - N/A   Clear
1:54 PM 59.0 °F - 35.1 °F 41% 30.11 in 10.0 mi South 15.0 mph - N/A   Clear
2:54 PM 62.1 °F - 34.0 °F 35% 30.07 in 10.0 mi South 13.8 mph - N/A   Clear
3:54 PM 64.0 °F - 32.0 °F 30% 30.04 in 10.0 mi South 13.8 mph 21.9 mph N/A   Clear
4:54 PM 64.9 °F - 33.1 °F 31% 30.01 in 10.0 mi SSE 15.0 mph 23.0 mph N/A   Clear
5:54 PM 63.0 °F - 34.0 °F 34% 29.99 in 10.0 mi SSE 10.4 mph - N/A   Clear
6:54 PM 59.0 °F - 36.0 °F 42% 29.98 in 10.0 mi SE 12.7 mph - N/A   Clear
7:54 PM 55.9 °F - 35.1 °F 45% 29.96 in 10.0 mi SE 11.5 mph - N/A   Clear
8:54 PM 55.0 °F - 35.1 °F 47% 29.97 in 10.0 mi SSE 12.7 mph - N/A   Clear
9:54 PM 53.1 °F - 36.0 °F 52% 29.97 in 10.0 mi SSE 13.8 mph - N/A   Clear
10:54 PM 51.1 °F - 37.0 °F 59% 29.96 in 10.0 mi SSE 12.7 mph - N/A   Clear
11:54 PM 52.0 °F - 35.1 °F 53% 29.96 in 10.0 mi SSE 10.4 mph - N/A   Clear